Flag for U.S.A. Weather past 2 weeks in Atlantic City, New Jersey, U.S.A.

Now
40 °F

Sunny.


Feels Like: 34 °F
Forecast: 37 / 48 °F
Wind: 9 mph from Northwest

Location: Atlantic City International Airport

Current Time: Dec 26, 2014 at 9:31:04 AM

Latest Report: Dec 26, 2014 at 8:54 AM


Visibility: 10 mi

Pressure: 30.31 "Hg

Humidity: 68%

Dew point: 30 °F

Location of Atlantic CityLocation

Historic Weather in Atlantic City — Graph

°F

Atlantic City temperature yesterday

Maximum temperature yesterday: 60 °F (at 3:54 AM)
Minimum temperature yesterday: 39 °F (at 11:54 PM)
Average temperature yesterday: 50 °F

Past Weeks' High & Low Weather Summary

 TemperatureHumidityPressure
High61 °F (Dec 24, 12:54 PM)100% (Dec 23, 9:54 PM)30.34 "Hg (Dec 23, 9:54 PM)
Low21 °F (Dec 20, 1:54 AM)43% (Dec 25, 1:54 PM)29.56 "Hg (Dec 25, 3:54 AM)
Average40 °F76%30.04 "Hg
* Reported Dec 11 7:54 AM — Dec 26 7:54 AM, Atlantic City, Weather by CustomWeather, © 2014

Note: Actual official high and low records may vary slightly from our data, if they occured in-between our weather recording intervals... More about our weather records

Advertising

Atlantic City weather history for previous 24 hours

 ConditionsComfort  
Time TempWeatherWind HumidityBarometerVisibility
7:54 AM
Dec 26
35 °FSunny.8 mph78%30.28 "Hg10 mi
6:54 AM34 °FClear.8 mph82%30.27 "Hg10 mi
5:54 AM35 °FClear.6 mph82%30.25 "Hg10 mi
4:54 AM31 °FClear.3 mph85%30.23 "Hg10 mi
3:54 AM36 °FClear.7 mph75%30.22 "Hg10 mi
2:54 AM37 °FClear.8 mph76%30.22 "Hg10 mi
1:54 AM37 °FClear.6 mph76%30.19 "Hg10 mi
12:54 AM38 °FClear.7 mph76%30.19 "Hg10 mi
11:54 PM
Dec 25
39 °FClear.6 mph73%30.20 "Hg10 mi
10:54 PM41 °FClear.7 mph67%30.18 "Hg10 mi
9:54 PM42 °FClear.6 mph65%30.16 "Hg10 mi
8:54 PM42 °FClear.6 mph65%30.13 "Hg10 mi
7:54 PM43 °FClear.7 mph62%30.09 "Hg10 mi
6:54 PM45 °FClear.7 mph56%30.07 "Hg10 mi
5:54 PM47 °FClear.9 mph52%30.05 "Hg10 mi
4:54 PM48 °FClear.13 mph50%30.01 "Hg10 mi
3:54 PM50 °FPartly sunny.18 mph48%29.97 "Hg10 mi
2:54 PM51 °FOvercast.18 mph46%29.93 "Hg10 mi
1:54 PM52 °FSunny.21 mph43%29.89 "Hg10 mi
12:54 PM52 °FPartly sunny.26 mph45%29.86 "Hg10 mi
11:54 AM52 °FSunny.26 mph49%29.84 "Hg10 mi
10:54 AM49 °FSunny.16 mph71%29.83 "Hg10 mi
9:54 AM49 °FSunny.9 mph84%29.81 "Hg10 mi
Weather by CustomWeather, © 2014

See weather overviewHow to use our weather pages